THOR ABLESTAR DEB, 3592

Orbit data source: Space-Track

THOR ABLESTAR DEB, 3592 is space debris in LEO originally from a launch on Thu, 24 Jun 1965 UTC launched from the Air Force Western Test Range (AFWTR). Debris objects in space refer to the collection of defunct objects orbiting the Earth. Examples of debris include non-operational satellites, rocket bodies, and fragments generated from explosions, collisions, or faulty payload assembly.

Loading next visibility...
Identifier
3592, 1965-048F
Orbit
LEO
Country
Flag of USUS
Related business
Manufacturer
Unknown
Mission
Spacecraft
Bus & Motor
Unknown
Mass
Unknown
Launch date (UTC)
1965-06-24 (60 years ago)
Launch vehicle
Unknown
Launch site
Air Force Western Test Range (AFWTR)
Object type
Payload
Rocket body
Debris
Shape & HBR
Unknown shape, 0.1 m
Radar Cross Section
Small (<0.1 m²)

Expand to show TLE details & history
Last TLE update: 10 hours ago

TLE from 10 hours ago
0 THOR ABLESTAR DEB
1  3592U 65048F   25298.48335257  .00000401  00000-0  49874-3 0  9995
2  3592  89.8754 290.7209 0059077 295.4798 187.0355 13.62564054988003
Epoch: 2025-10-25T11:36Z
TLE epoch observation values (Epoch: 2025-10-25T11:36:01.662Z)
Latitude
57.65896°
Longitude
-97.59505°
Altitude
1,079.597 km
Speed
7.296 km/s
True Right ascension
07h 22m 06s
True Declination
57° 30' 36"
Sunlit
Object was in daylight at epoch
Visualization orbit readout
Latitude
Unknown
Longitude
Unknown
Altitude
Unknown
Speed
Unknown
Apparent Right ascension
Unknown
Apparent Declination
Unknown
Sunlit
N/A
Visualization observer readout
Local Sidereal Time
16:26:00
Azimuth
Unknown
Elevation
Unknown
Doppler factor
Unknown
Orbital elements
Apogee altitude
1,067.146 km
Perigee altitude
979.694 km
Semi-major axis
7,401.557 km
Eccentricity
0.00591
Inclination
89.8754°
RAAN
290.7209°
Arg. of periapsis
295.4798°
True anomaly
186.95318°
Mean anomaly
187.0355°
Eccentric anomaly
186.99428°
Mean motion
3.40846 °/min
Orbital period
105.62 mins
BSTAR
0.00049874
Loading maneuver chart data...
Computing Atmospheric mass density...

Documentation

Showing up to 5 results
|